Location: Castelbiague
(43.0361°N, 0.9246°E)
Time: 09:06:00
(UTC+00:00)

ARIANE 5 R/B - Pass Details

Date: 17 June 2021
Orbit: 620 x 656 km, 98.1° (Epoch: 16 July)

Event Time Altitude Azimuth Distance (km) Brightness Sun altitude
Exits shadow 22:06:43 18° 214° (SW) 1,582 4.4 -18.8°
Maximum altitude 22:09:15 30° 264° (W) 1,156 4.1 -19.0°
Drops below altitude 10° 22:13:12 10° 326° (NW) 2,057 6.4 -19.4°
Sets 22:15:40 0° 337° (NNW) 2,978 7.7 -19.6°
